Content
SEND FEEDBACK

Daily
Averages
Monthly
Summary
United States of America

BRADY, NEBRASKA


Home > North America > United States > Nebraska
Elevation: 2774 feet     Latitude: 41 08N     Longitude: 100 41W

WEATHER
 
SELECT A DAY
Number of Records: 201,558;   Date Range: 1/1/95 - 8/28/14
 
SHARE

PRINT THIS DATA

[ ← Previous Day ]
WEATHER ALMANAC - JANUARY 31, 2013
[ Next Day → ]
[ °C ]   °F
Weather ElementAverageHighLow
Temperature17.6 °F21.2 °F (3:44 am)12.2 °F (10:53 pm)
Dewpoint7.5 °F15.8 °F (3:44 am) (7:00 pm)
Humidity65.5 %81 % (1:53 am)45 % (2:53 pm)
Barometer30.18 in30.39 in (9:53 pm)29.92 in (3:44 am)
Wind Speed9.2 mph24.2 mph (9:53 am)
Wind Gust31.1 mph (9:53 am)
Weather ElementAverage
Visibility9.9 mi
Wind DirectionWSW (240.7 °)

Weather ElementTotal
Precipitation---
Heating Degree Days48.3 (Base 65)
Averaged from 28 records on January 31, 2013
WEATHER CONDITIONS BREAKOUT
WIND DIRECTION BREAKOUT
WEATHER BY HOUR - JANUARY 31, 2013
[ °C ]   °F
Local TimeTemperatureDewpointHumidityBarometerVisibilityWind DirectionWind SpeedGust SpeedPrecipitationEventsConditions
1:53 AM19.9 °F15.1 °F81 %29.99 in10.0 miENE (60°)3.5 mphOvercast
2:53 AM21.0 °F15.1 °F78 %30.01 in10.0 miCalmOvercast
3:44 AM21.2 °F15.8 °F80 %29.92 in10.0 miNW (310°)3.5 mphOvercast
3:53 AM21.0 °F15.1 °F78 %30.01 in10.0 miCalmOvercast
4:42 AM21.2 °F15.8 °F80 %29.94 in10.0 miNorth (350°)8.1 mphOvercast
4:53 AM21.2 °F15.8 °F80 %29.94 in10.0 miNorth (350°)10.4 mphOvercast
5:06 AM21.2 °F15.8 °F80 %29.95 in10.0 miNNW (340°)8.1 mphOvercast
5:35 AM21.2 °F15.8 °F80 %29.95 in8.0 miNNW (340°)5.8 mphOvercast
5:53 AM21.0 °F15.1 °F78 %30.06 in9.0 miNorth (350°)5.8 mph0.00 inOvercast
6:53 AM21.0 °F14.0 °F74 %30.09 in10.0 miNNW (330°)11.5 mphOvercast
7:53 AM19.0 °F8.1 °F62 %30.15 in10.0 miNNW (340°)20.7 mph25.3 mphOvercast
8:00 AM19.4 °F8.6 °F63 %30.05 in10.0 miNNW (340°)17.3 mph24.2 mphOvercast
8:42 AM15.8 °F6.8 °F68 %30.10 in10.0 miNorth (350°)18.4 mph25.3 mphOvercast
8:53 AM16.0 °F5.0 °F62 %30.24 in10.0 miNNW (340°)18.4 mph26.5 mphOvercast
9:53 AM14.0 °F1.9 °F59 %30.29 in10.0 miNorth (350°)24.2 mph31.1 mphOvercast
10:53 AM14.0 °F1.0 °F56 %30.35 in10.0 miNNW (330°)16.1 mph23.0 mphOvercast
11:53 AM16.0 °F0.0 °F49 %30.36 in10.0 miNNW (330°)13.8 mph21.9 mphMostly Cloudy
12:53 PM16.0 °F0.0 °F49 %30.37 in10.0 miNNW (330°)16.1 mph24.2 mphOvercast
2:53 PM18.0 °F0.0 °F45 %30.34 in10.0 miNW (310°)13.8 mphOvercast
3:53 PM17.1 °F1.0 °F50 %30.35 in10.0 miNW (320°)12.7 mphOvercast
4:53 PM17.1 °F1.0 °F50 %30.34 in10.0 miNW (320°)11.5 mphOvercast
5:53 PM16.0 °F1.9 °F54 %30.34 in10.0 miNNW (330°)5.8 mphMostly Cloudy
6:53 PM15.1 °F1.9 °F56 %30.33 in10.0 miNNE (20°)4.6 mphOvercast
7:53 PM14.0 °F3.0 °F62 %30.36 in10.0 miCalmOvercast
8:53 PM16.0 °F3.0 °F57 %30.37 in10.0 miSouth (170°)3.5 mphOvercast
9:53 PM14.0 °F3.9 °F64 %30.39 in10.0 miSE (130°)3.5 mphOvercast
10:53 PM12.2 °F3.2 °F67 %30.23 in10.0 miCalmScattered Clouds
11:53 PM14.0 °F6.1 °F71 %30.34 in10.0 miCalmOvercast
Hourly data recorded from KLBF, located miles away from Brady, Nebraska







STORIES FROM OUR PARTNERS